Weather History for KWLD - July, 2014

Change the Weather History Date:

Tuesday, July 29, 2014

  Actual Average Record
Temperature  
Mean Temperature 77 °F -  
Max Temperature 91 °F 91 °F 111 °F (2012)
Min Temperature 64 °F 69 °F 59 °F (2005)
Cooling Degree Days 12    
Growing Degree Days 27 (Base 50)    
Moisture  
Dew Point 61 °F    
Average Humidity 58    
Maximum Humidity 81    
Minimum Humidity 38    
Precipitation  
Precipitation 0.00 in - - ()
Sea Level Pressure  
Sea Level Pressure 30.11 in    
Wind  
Wind Speed 5 mph (ESE)    
Max Wind Speed 12 mph    
Max Gust Speed -    
Visibility 10 miles    
Events      
Averages and records for this station are not official NWS values.
T = Trace of Precipitation, MM = Missing Value Source: NWS Daily Summary

Daily Weather History Graph

Daily Weather History Graph

Search for Another Location

Airport or City:

Trip Planner

Search our weather history database for the weather conditions in past years. The results will help you decide how hot, cold, wet, or windy it might be!

Date:

Astronomy

Jul. 29, 2014 Rise Set
Actual Time 6:30 AM CDT 8:38 PM CDT
Civil Twilight 6:01 AM CDT 9:07 PM CDT
Nautical Twilight 5:26 AM CDT 9:42 PM CDT
Astronomical Twilight 4:47 AM CDT 10:20 PM CDT
Moon 9:03 AM CDT (7/29) 9:56 PM CDT (7/29)
Length of Visible Light 15h 05m
Length of Day
14h 07m
Waxing Crescent, 7% of the Moon is Illuminated
Jul 29
Waxing Crescent
Aug 3
First Quarter
Aug 10
Full
Aug 17
Last Quarter
Aug 25
New

Hourly Weather History & Observations

Time (CDT) Temp. Heat Index Dew Point Humidity Pressure Visibility Wind Dir Wind Speed Gust Speed Precip Events Conditions
12:54 AM 66.9 °F - 57.9 °F 73% 30.16 in 10.0 mi Calm Calm - N/A   Clear
1:54 AM 71.1 °F - 57.0 °F 61% 30.14 in 10.0 mi East 5.8 mph - N/A   Clear
2:54 AM 69.1 °F - 57.9 °F 68% 30.15 in 10.0 mi East 3.5 mph - N/A   Clear
3:54 AM 66.9 °F - 57.9 °F 73% 30.15 in 10.0 mi East 3.5 mph - N/A   Clear
4:54 AM 66.9 °F - 57.9 °F 73% 30.14 in 10.0 mi East 4.6 mph - N/A   Clear
5:54 AM 64.9 °F - 57.9 °F 78% 30.15 in 10.0 mi East 4.6 mph - N/A   Clear
6:54 AM 64.9 °F - 59.0 °F 81% 30.16 in 10.0 mi East 4.6 mph - N/A   Clear
7:54 AM 68.0 °F - 60.1 °F 76% 30.17 in 10.0 mi East 5.8 mph - N/A   Clear
9:54 AM 78.1 °F - 61.0 °F 56% 30.17 in 10.0 mi SSE 10.4 mph - N/A   Clear
10:54 AM 82.0 °F 82.7 °F 61.0 °F 49% 30.17 in 10.0 mi SE 6.9 mph - N/A   Clear
11:54 AM 84.9 °F 84.4 °F 59.0 °F 41% 30.16 in 10.0 mi SE 8.1 mph - N/A   Clear
12:54 PM 87.1 °F 86.7 °F 60.1 °F 40% 30.14 in 10.0 mi SW 5.8 mph - N/A   Clear
1:54 PM 89.1 °F 88.8 °F 60.1 °F 38% 30.12 in 10.0 mi Variable 4.6 mph - N/A   Scattered Clouds
2:54 PM 88.0 °F 87.9 °F 61.0 °F 40% 30.10 in 10.0 mi Calm Calm - N/A   Mostly Cloudy
3:54 PM 90.0 °F 90.3 °F 62.1 °F 39% 30.08 in 10.0 mi SSE 5.8 mph - N/A   Mostly Cloudy
5:54 PM 89.1 °F 89.3 °F 62.1 °F 40% 30.04 in 10.0 mi ESE 9.2 mph - N/A   Partly Cloudy
6:54 PM 86.0 °F 86.8 °F 63.0 °F 46% 30.02 in 10.0 mi SE 11.5 mph - N/A   Mostly Cloudy
7:54 PM 84.9 °F 85.9 °F 63.0 °F 48% 30.01 in 10.0 mi ESE 9.2 mph - N/A   Mostly Cloudy
8:54 PM 80.1 °F 81.7 °F 64.0 °F 58% 30.03 in 10.0 mi ESE 6.9 mph - N/A   Scattered Clouds
9:54 PM 77.0 °F - 64.0 °F 64% 30.06 in 10.0 mi SE 10.4 mph - N/A   Clear
10:54 PM 75.0 °F - 62.1 °F 64% 30.08 in 10.0 mi SE 5.8 mph - N/A   Clear
11:54 PM 75.0 °F - 64.0 °F 69% 30.07 in 10.0 mi ESE 6.9 mph - N/A   Clear